| time (UTC) | temp F | wind direction | speed MPH | gust MPH | rain 1hr in | rain 24hr in | rain mn in | humidity % | barometer mb |
| 20260905214019 | 73 | 265 | 2.0 | 3.0 | 0.00 | 0.10 | 0.10 | 81 | 1009.3 |
| 20260905213515 | 73 | 263 | 3.0 | 3.0 | 0.00 | 0.10 | 0.10 | 80 | 1009.3 |
| 20260905213010 | 74 | 258 | 2.0 | 3.0 | 0.00 | 0.10 | 0.10 | 77 | 1009.3 |
| 20260905212505 | 74 | 263 | 3.0 | 3.0 | 0.00 | 0.10 | 0.10 | 77 | 1009.4 |
| 20260905212004 | 74 | 259 | 3.0 | 3.0 | 0.00 | 0.10 | 0.10 | 77 | 1009.3 |
| 20260905211500 | 74 | 259 | 3.0 | 3.0 | 0.00 | 0.10 | 0.10 | 77 | 1009.4 |
| 20260905210955 | 75 | 258 | 2.0 | 3.0 | 0.00 | 0.10 | 0.10 | 75 | 1009.2 |
| 20260905210451 | 75 | 263 | 3.0 | 3.0 | 0.00 | 0.10 | 0.10 | 75 | 1009.0 |
| 20260905205950 | 75 | 260 | 2.0 | 3.0 | 0.00 | 0.10 | 0.10 | 74 | 1008.9 |
| 20260905205445 | 76 | 275 | 2.0 | 3.0 | 0.00 | 0.10 | 0.10 | 73 | 1009.1 |
| 20260905204943 | 77 | 259 | 3.0 | 3.0 | 0.00 | 0.10 | 0.10 | 69 | 1009.1 |
| 20260905204440 | 79 | 247 | 2.0 | 3.0 | 0.00 | 0.10 | 0.10 | 64 | 1009.3 |
| 20260905203939 | 79 | 247 | 2.0 | 3.0 | 0.00 | 0.10 | 0.10 | 64 | 1009.3 |
| 20260905203434 | 80 | 261 | 2.0 | 3.0 | 0.00 | 0.10 | 0.10 | 61 | 1009.0 |
| 20260905202930 | 80 | 294 | 3.0 | 4.0 | 0.00 | 0.10 | 0.10 | 60 | 1008.8 |
| 20260905202425 | 80 | 331 | 3.0 | 4.0 | 0.00 | 0.10 | 0.10 | 61 | 1009.1 |
| 20260905201920 | 80 | 263 | 3.0 | 3.0 | 0.00 | 0.10 | 0.10 | 60 | 1009.2 |
| 20260905201416 | 81 | 270 | 2.0 | 4.0 | 0.00 | 0.10 | 0.10 | 58 | 1009.1 |
| 20260905200915 | 82 | 255 | 3.0 | 3.0 | 0.00 | 0.10 | 0.10 | 60 | 1009.3 |
| 20260905200411 | 82 | 331 | 3.0 | 5.0 | 0.00 | 0.10 | 0.10 | 55 | 1009.3 |
| 20260905195909 | 81 | 266 | 3.0 | 3.0 | 0.00 | 0.10 | 0.10 | 59 | 1009.4 |
| 20260905195404 | 80 | 266 | 3.0 | 3.0 | 0.00 | 0.10 | 0.10 | 60 | 1009.4 |
| 20260905194900 | 81 | 262 | 3.0 | 5.0 | 0.00 | 0.10 | 0.10 | 59 | 1009.4 |
| 20260905194400 | 82 | 270 | 3.0 | 5.0 | 0.00 | 0.10 | 0.10 | 61 | 1009.3 |
| 20260905193900 | 82 | 265 | 2.0 | 3.0 | 0.00 | 0.10 | 0.10 | 62 | 1009.3 |
| 20260905193355 | 81 | 270 | 3.0 | 4.0 | 0.00 | 0.10 | 0.10 | 60 | 1009.4 |
| 20260905192850 | 82 | 251 | 2.0 | 4.0 | 0.00 | 0.10 | 0.10 | 58 | 1009.4 |
| 20260905192345 | 82 | 257 | 2.0 | 3.0 | 0.00 | 0.10 | 0.10 | 57 | 1009.5 |
| 20260905191845 | 82 | 252 | 3.0 | 4.0 | 0.00 | 0.10 | 0.10 | 58 | 1009.4 |
| 20260905191344 | 82 | 286 | 1.0 | 3.0 | 0.00 | 0.10 | 0.10 | 60 | 1009.5 |
| 20260905190843 | 81 | 267 | 3.0 | 3.0 | 0.00 | 0.10 | 0.10 | 58 | 1009.4 |
| 20260905190336 | 81 | 262 | 3.0 | 4.0 | 0.00 | 0.10 | 0.10 | 58 | 1009.6 |
| 20260905185835 | 80 | 270 | 2.0 | 5.0 | 0.00 | 0.10 | 0.10 | 61 | 1009.4 |
| 20260905185331 | 81 | 260 | 4.0 | 5.0 | 0.00 | 0.10 | 0.10 | 58 | 1009.5 |
| 20260905184830 | 80 | 259 | 3.0 | 5.0 | 0.00 | 0.10 | 0.10 | 63 | 1009.5 |
| 20260905184329 | 81 | 267 | 3.0 | 3.0 | 0.00 | 0.10 | 0.10 | 62 | 1009.5 |
| 20260905183828 | 81 | 270 | 3.0 | 6.0 | 0.00 | 0.10 | 0.10 | 59 | 1009.7 |
| 20260905183323 | 83 | 237 | 3.0 | 6.0 | 0.00 | 0.10 | 0.10 | 56 | 1009.7 |
| 20260905182818 | 83 | 233 | 0.0 | 5.0 | 0.00 | 0.10 | 0.10 | 56 | 1009.8 |
| 20260905182318 | 83 | 267 | 3.0 | 4.0 | 0.00 | 0.10 | 0.10 | 60 | 1010.1 |
| 20260905181813 | 82 | 305 | 2.0 | 5.0 | 0.00 | 0.10 | 0.10 | 61 | 1009.7 |
| 20260905181313 | 83 | 262 | 3.0 | 5.0 | 0.00 | 0.10 | 0.10 | 59 | 1009.9 |
| 20260905180812 | 82 | 282 | 4.0 | 5.0 | 0.00 | 0.10 | 0.10 | 59 | 1009.6 |
| 20260905180307 | 82 | 264 | 3.0 | 4.0 | 0.00 | 0.10 | 0.10 | 63 | 1009.8 |
| 20260905175802 | 81 | 0 | 0.0 | 5.0 | 0.00 | 0.10 | 0.10 | 61 | 1009.6 |
| 20260905175256 | 82 | 265 | 4.0 | 4.0 | 0.00 | 0.10 | 0.10 | 63 | 1010.0 |
| 20260905174752 | 81 | 257 | 4.0 | 5.0 | 0.00 | 0.10 | 0.10 | 62 | 1009.7 |
| 20260905174248 | 82 | 249 | 3.0 | 5.0 | 0.00 | 0.10 | 0.10 | 60 | 1009.7 |
| 20260905173743 | 82 | 259 | 3.0 | 5.0 | 0.00 | 0.10 | 0.10 | 61 | 1009.7 |
| 20260905173239 | 82 | 266 | 5.0 | 5.0 | 0.00 | 0.10 | 0.10 | 64 | 1009.7 |
| 20260905172733 | 82 | 250 | 3.0 | 6.0 | 0.00 | 0.10 | 0.10 | 63 | 1009.8 |
| 20260905172232 | 82 | 270 | 2.0 | 5.0 | 0.00 | 0.10 | 0.10 | 62 | 1010.0 |
| 20260905171729 | 81 | 264 | 3.0 | 6.0 | 0.00 | 0.10 | 0.10 | 61 | 1010.1 |
| 20260905171225 | 82 | 259 | 4.0 | 6.0 | 0.00 | 0.10 | 0.10 | 61 | 1009.8 |
| 20260905170721 | 81 | 213 | 3.0 | 6.0 | 0.00 | 0.10 | 0.10 | 59 | 1009.9 |
| 20260905170221 | 81 | 218 | 4.0 | 5.0 | 0.00 | 0.10 | 0.10 | 62 | 1010.1 |
| 20260905165715 | 82 | 274 | 3.0 | 3.0 | 0.00 | 0.10 | 0.10 | 64 | 1010.2 |
| 20260905165211 | 81 | 252 | 3.0 | 5.0 | 0.00 | 0.10 | 0.10 | 63 | 1010.1 |
| 20260905164710 | 81 | 212 | 2.0 | 6.0 | 0.00 | 0.10 | 0.10 | 67 | 1010.2 |
| 20260905164205 | 82 | 266 | 3.0 | 4.0 | 0.00 | 0.10 | 0.10 | 66 | 1010.2 |
| 20260905163701 | 82 | 223 | 5.0 | 5.0 | 0.00 | 0.10 | 0.10 | 66 | 1010.1 |
| 20260905163157 | 81 | 270 | 2.0 | 3.0 | 0.00 | 0.10 | 0.10 | 64 | 1010.0 |
| 20260905162653 | 80 | 266 | 5.0 | 6.0 | 0.00 | 0.10 | 0.10 | 62 | 1010.2 |
| 20260905162152 | 81 | 264 | 3.0 | 4.0 | 0.00 | 0.10 | 0.10 | 62 | 1010.1 |
| 20260905161647 | 81 | 290 | 3.0 | 5.0 | 0.00 | 0.10 | 0.10 | 61 | 1010.1 |
| 20260905161144 | 81 | 257 | 4.0 | 4.0 | 0.00 | 0.10 | 0.10 | 71 | 1010.6 |
| 20260905160639 | 80 | 252 | 3.0 | 5.0 | 0.00 | 0.10 | 0.10 | 71 | 1010.5 |
| 20260905160138 | 80 | 253 | 4.0 | 5.0 | 0.00 | 0.10 | 0.10 | 67 | 1010.6 |
| 20260905155633 | 80 | 270 | 3.0 | 4.0 | 0.00 | 0.10 | 0.10 | 69 | 1010.7 |
| 20260905155132 | 79 | 267 | 3.0 | 3.0 | 0.00 | 0.10 | 0.10 | 76 | 1010.8 |
| 20260905154632 | 79 | 267 | 3.0 | 3.0 | 0.00 | 0.10 | 0.10 | 76 | 1010.8 |
| 20260905154128 | 79 | 227 | 3.0 | 5.0 | 0.00 | 0.10 | 0.10 | 73 | 1010.5 |
| 20260905153623 | 78 | 256 | 3.0 | 4.0 | 0.00 | 0.10 | 0.10 | 74 | 1010.7 |
| 20260905153119 | 77 | 254 | 3.0 | 5.0 | 0.00 | 0.10 | 0.10 | 78 | 1010.7 |
| 20260905152613 | 76 | 263 | 3.0 | 5.0 | 0.00 | 0.10 | 0.10 | 79 | 1010.8 |
| 20260905152108 | 76 | 249 | 3.0 | 4.0 | 0.00 | 0.10 | 0.10 | 83 | 1011.0 |
| 20260905151603 | 75 | 244 | 3.0 | 3.0 | 0.00 | 0.10 | 0.10 | 82 | 1011.0 |
| 20260905151058 | 75 | 257 | 2.0 | 4.0 | 0.00 | 0.10 | 0.10 | 85 | 1010.9 |
| 20260905150553 | 74 | 264 | 3.0 | 4.0 | 0.00 | 0.10 | 0.10 | 84 | 1010.9 |
| 20260905150051 | 75 | 264 | 3.0 | 4.0 | 0.00 | 0.10 | 0.10 | 86 | 1011.0 |
| 20260905145544 | 74 | 262 | 3.0 | 3.0 | 0.00 | 0.10 | 0.10 | 86 | 1010.8 |
| 20260905145044 | 74 | 220 | 3.0 | 4.0 | 0.00 | 0.10 | 0.10 | 86 | 1010.6 |
| 20260905144539 | 74 | 258 | 2.0 | 3.0 | 0.00 | 0.10 | 0.10 | 87 | 1010.9 |
| 20260905144038 | 74 | 255 | 3.0 | 3.0 | 0.00 | 0.10 | 0.10 | 88 | 1010.7 |
| 20260905143538 | 73 | 262 | 3.0 | 3.0 | 0.00 | 0.10 | 0.10 | 88 | 1010.8 |
| 20260905143033 | 73 | 258 | 3.0 | 3.0 | 0.00 | 0.10 | 0.10 | 90 | 1010.5 |
| 20260905142531 | 73 | 270 | 2.0 | 3.0 | 0.00 | 0.10 | 0.10 | 91 | 1010.6 |
| 20260905142027 | 72 | 270 | 2.0 | 2.0 | 0.00 | 0.10 | 0.10 | 92 | 1010.5 |
| 20260905141521 | 71 | 260 | 2.0 | 3.0 | 0.00 | 0.10 | 0.10 | 92 | 1010.6 |
| 20260905141018 | 72 | 262 | 2.0 | 3.0 | 0.00 | 0.10 | 0.10 | 92 | 1010.5 |
| 20260905140513 | 72 | 257 | 2.0 | 3.0 | 0.00 | 0.10 | 0.10 | 90 | 1010.3 |
| 20260905140011 | 72 | 261 | 2.0 | 2.0 | 0.00 | 0.10 | 0.10 | 92 | 1010.5 |
| 20260905135508 | 72 | 266 | 3.0 | 3.0 | 0.00 | 0.10 | 0.10 | 91 | 1010.4 |
| 20260905135007 | 72 | 254 | 3.0 | 3.0 | 0.00 | 0.10 | 0.10 | 92 | 1010.5 |
| 20260905134502 | 72 | 254 | 2.0 | 3.0 | 0.00 | 0.10 | 0.10 | 92 | 1010.5 |
| 20260905134001 | 72 | 266 | 3.0 | 3.0 | 0.00 | 0.10 | 0.10 | 93 | 1010.4 |
| 20260905133456 | 72 | 254 | 2.0 | 3.0 | 0.00 | 0.10 | 0.10 | 94 | 1010.5 |
| 20260905132955 | 72 | 247 | 2.0 | 2.0 | 0.00 | 0.10 | 0.10 | 93 | 1010.3 |
| 20260905132451 | 71 | 265 | 2.0 | 3.0 | 0.00 | 0.10 | 0.10 | 93 | 1010.3 |
| 20260905131945 | 71 | 266 | 3.0 | 3.0 | 0.00 | 0.10 | 0.10 | 94 | 1010.6 |
| 20260905131441 | 71 | 266 | 2.0 | 3.0 | 0.00 | 0.10 | 0.10 | 94 | 1010.4 |
| 20260905130936 | 71 | 273 | 3.0 | 3.0 | 0.00 | 0.10 | 0.10 | 96 | 1010.3 |
| 20260905130435 | 71 | 264 | 3.0 | 3.0 | 0.00 | 0.10 | 0.10 | 98 | 1010.6 |
| 20260905125935 | 70 | 239 | 2.0 | 3.0 | 0.00 | 0.10 | 0.10 | 99 | 1010.4 |
| 20260905125430 | 70 | 264 | 1.0 | 2.0 | 0.00 | 0.10 | 0.10 | 99 | 1010.5 |
| 20260905124926 | 70 | 189 | 0.0 | 2.0 | 0.00 | 0.10 | 0.10 | 99 | 1010.6 |
| 20260905124422 | 69 | 245 | 2.0 | 3.0 | 0.00 | 0.10 | 0.10 | 99 | 1010.5 |
| 20260905123922 | 69 | 246 | 3.0 | 4.0 | 0.00 | 0.10 | 0.10 | 99 | 1010.6 |
| 20260905123419 | 69 | 246 | 3.0 | 4.0 | 0.00 | 0.10 | 0.10 | 99 | 1010.6 |
| 20260905122914 | 70 | 259 | 3.0 | 3.0 | 0.00 | 0.10 | 0.10 | 99 | 1010.6 |
| 20260905122413 | 69 | 241 | 3.0 | 3.0 | 0.00 | 0.10 | 0.10 | 99 | 1010.3 |
| 20260905121909 | 69 | 263 | 1.0 | 2.0 | 0.00 | 0.10 | 0.10 | 99 | 1010.3 |
| 20260905121405 | 68 | 246 | 1.0 | 3.0 | 0.00 | 0.10 | 0.10 | 99 | 1010.4 |
| 20260905120904 | 68 | 251 | 2.0 | 3.0 | 0.00 | 0.10 | 0.10 | 99 | 1010.4 |
| 20260905120404 | 68 | 244 | 3.0 | 3.0 | 0.00 | 0.10 | 0.10 | 99 | 1010.5 |
| 20260905115859 | 68 | 258 | 2.0 | 2.0 | 0.00 | 0.10 | 0.10 | 99 | 1010.3 |
| 20260905115358 | 68 | 276 | 1.0 | 2.0 | 0.00 | 0.10 | 0.10 | 99 | 1010.2 |
| 20260905114853 | 68 | 270 | 1.0 | 2.0 | 0.00 | 0.10 | 0.10 | 99 | 1010.4 |
| 20260905114352 | 68 | 270 | 1.0 | 2.0 | 0.00 | 0.10 | 0.10 | 99 | 1010.1 |
| 20260905113852 | 68 | 261 | 2.0 | 2.0 | 0.00 | 0.10 | 0.10 | 99 | 1010.3 |
| 20260905113348 | 68 | 262 | 1.0 | 2.0 | 0.00 | 0.10 | 0.10 | 99 | 1010.3 |
| 20260905112842 | 68 | 254 | 2.0 | 2.0 | 0.00 | 0.10 | 0.10 | 99 | 1010.2 |
| 20260905112337 | 68 | 264 | 2.0 | 2.0 | 0.00 | 0.10 | 0.10 | 99 | 1010.0 |
| 20260905111833 | 67 | 265 | 2.0 | 2.0 | 0.00 | 0.10 | 0.10 | 99 | 1010.1 |
| 20260905111327 | 67 | 270 | 2.0 | 2.0 | 0.00 | 0.10 | 0.10 | 99 | 1010.0 |
| 20260905110826 | 68 | 259 | 2.0 | 2.0 | 0.00 | 0.10 | 0.10 | 99 | 1009.7 |
| 20260905110326 | 67 | 295 | 2.0 | 2.0 | 0.00 | 0.10 | 0.10 | 99 | 1009.9 |
| 20260905105822 | 67 | 276 | 1.0 | 2.0 | 0.00 | 0.10 | 0.10 | 99 | 1010.0 |
| 20260905105321 | 67 | 264 | 1.0 | 2.0 | 0.00 | 0.10 | 0.10 | 99 | 1009.9 |
| 20260905104815 | 67 | 270 | 1.0 | 2.0 | 0.00 | 0.10 | 0.10 | 99 | 1009.7 |
| 20260905104312 | 67 | 255 | 1.0 | 2.0 | 0.00 | 0.10 | 0.10 | 99 | 1009.6 |
| 20260905103811 | 67 | 249 | 1.0 | 2.0 | 0.00 | 0.10 | 0.10 | 99 | 1009.3 |
| 20260905103307 | 67 | 259 | 2.0 | 2.0 | 0.00 | 0.10 | 0.10 | 99 | 1009.5 |
| 20260905102803 | 68 | 255 | 1.0 | 2.0 | 0.00 | 0.10 | 0.10 | 99 | 1009.5 |
| 20260905102259 | 68 | 262 | 1.0 | 2.0 | 0.00 | 0.10 | 0.10 | 99 | 1009.5 |
| 20260905101758 | 68 | 270 | 1.0 | 2.0 | 0.00 | 0.10 | 0.10 | 99 | 1009.3 |
| 20260905101257 | 68 | 265 | 2.0 | 2.0 | 0.00 | 0.10 | 0.10 | 99 | 1009.4 |
| 20260905100752 | 68 | 253 | 2.0 | 2.0 | 0.00 | 0.10 | 0.10 | 99 | 1009.2 |
| 20260905100248 | 68 | 265 | 2.0 | 2.0 | 0.00 | 0.10 | 0.10 | 99 | 1009.3 |
| 20260905095747 | 69 | 257 | 2.0 | 2.0 | 0.00 | 0.10 | 0.10 | 99 | 1009.3 |
| 20260905095247 | 68 | 249 | 1.0 | 2.0 | 0.00 | 0.10 | 0.10 | 99 | 1009.1 |
| 20260905094742 | 69 | 264 | 1.0 | 2.0 | 0.00 | 0.10 | 0.10 | 99 | 1009.4 |
| 20260905094237 | 69 | 270 | 1.0 | 2.0 | 0.00 | 0.10 | 0.10 | 99 | 1009.4 |
| 20260905093736 | 69 | 270 | 1.0 | 2.0 | 0.00 | 0.10 | 0.10 | 99 | 1009.4 |
| 20260905093232 | 69 | 270 | 1.0 | 2.0 | 0.00 | 0.10 | 0.10 | 99 | 1009.3 |
| 20260905092727 | 69 | 251 | 1.0 | 2.0 | 0.00 | 0.10 | 0.10 | 99 | 1009.4 |
| 20260905092223 | 69 | 262 | 1.0 | 2.0 | 0.00 | 0.10 | 0.10 | 99 | 1009.4 |
| 20260905091722 | 69 | 246 | 1.0 | 2.0 | 0.00 | 0.10 | 0.10 | 99 | 1009.6 |
| 20260905091218 | 69 | 253 | 2.0 | 2.0 | 0.00 | 0.10 | 0.10 | 99 | 1009.5 |
| 20260905090717 | 69 | 262 | 1.0 | 2.0 | 0.00 | 0.10 | 0.10 | 99 | 1009.3 |
| 20260905090213 | 69 | 262 | 1.0 | 2.0 | 0.00 | 0.10 | 0.10 | 99 | 1009.5 |
| 20260905085711 | 69 | 270 | 1.0 | 2.0 | 0.00 | 0.10 | 0.10 | 99 | 1009.3 |
| 20260905085206 | 69 | 262 | 1.0 | 2.0 | 0.00 | 0.10 | 0.10 | 99 | 1009.1 |
| 20260905084701 | 69 | 241 | 2.0 | 2.0 | 0.00 | 0.10 | 0.10 | 99 | 1009.4 |
| 20260905084201 | 69 | 250 | 2.0 | 2.0 | 0.00 | 0.10 | 0.10 | 99 | 1009.2 |
| 20260905083655 | 69 | 228 | 2.0 | 2.0 | 0.02 | 0.10 | 0.10 | 99 | 1009.2 |
| 20260905083152 | 70 | 260 | 2.0 | 2.0 | 0.00 | 0.10 | 0.10 | 99 | 1009.3 |
| 20260905082647 | 70 | 255 | 1.0 | 2.0 | 0.00 | 0.10 | 0.10 | 99 | 1009.1 |
| 20260905082142 | 70 | 252 | 2.0 | 2.0 | 0.00 | 0.10 | 0.10 | 99 | 1009.0 |
| 20260905081637 | 70 | 243 | 1.0 | 2.0 | 0.00 | 0.10 | 0.10 | 99 | 1009.4 |
| 20260905081132 | 70 | 255 | 1.0 | 1.0 | 0.00 | 0.10 | 0.10 | 99 | 1009.0 |
| 20260905080626 | 70 | 249 | 0.0 | 2.0 | 0.00 | 0.10 | 0.10 | 99 | 1009.2 |
| 20260905080121 | 70 | 251 | 1.0 | 2.0 | 0.00 | 0.10 | 0.10 | 99 | 1009.4 |
| 20260905075620 | 70 | 255 | 2.0 | 2.0 | 0.00 | 0.10 | 0.10 | 99 | 1009.2 |
| 20260905075120 | 70 | 260 | 2.0 | 2.0 | 0.00 | 0.10 | 0.10 | 99 | 1009.2 |
| 20260905074619 | 70 | 255 | 2.0 | 2.0 | 0.00 | 0.10 | 0.10 | 99 | 1009.2 |
| 20260905074115 | 70 | 251 | 1.0 | 2.0 | 0.00 | 0.10 | 0.10 | 99 | 1009.3 |
| 20260905073610 | 70 | 270 | 2.0 | 2.0 | 0.00 | 0.10 | 0.10 | 99 | 1009.2 |
| 20260905073106 | 71 | 276 | 1.0 | 2.0 | 0.00 | 0.10 | 0.10 | 99 | 1009.1 |
| 20260905072605 | 70 | 254 | 2.0 | 2.0 | 0.00 | 0.10 | 0.10 | 99 | 1009.0 |
| 20260905072101 | 70 | 270 | 1.0 | 2.0 | 0.00 | 0.10 | 0.10 | 99 | 1009.5 |
| 20260905071557 | 70 | 257 | 1.0 | 2.0 | 0.00 | 0.10 | 0.10 | 99 | 1009.4 |
| 20260905071057 | 70 | 254 | 2.0 | 3.0 | 0.00 | 0.10 | 0.10 | 99 | 1009.4 |
| 20260905070552 | 71 | 270 | 1.0 | 2.0 | 0.12 | 0.10 | 0.10 | 99 | 1009.5 |
| 20260905070048 | 71 | 245 | 2.0 | 2.0 | 0.21 | 0.10 | 0.10 | 99 | 1009.4 |
| 20260905065546 | 71 | 288 | 2.0 | 3.0 | 0.09 | 0.08 | 0.08 | 99 | 1009.8 |
| 20260905065042 | 71 | 257 | 2.0 | 3.0 | 0.00 | 0.06 | 0.06 | 99 | 1009.8 |
| 20260905064542 | 72 | 266 | 2.0 | 2.0 | 0.00 | 0.06 | 0.06 | 99 | 1009.6 |
| 20260905064037 | 72 | 261 | 2.0 | 2.0 | 0.00 | 0.06 | 0.06 | 99 | 1009.7 |
| 20260905063536 | 72 | 270 | 1.0 | 2.0 | 0.00 | 0.06 | 0.06 | 99 | 1009.8 |
| 20260905063032 | 72 | 259 | 2.0 | 2.0 | 0.00 | 0.06 | 0.06 | 99 | 1009.8 |
| 20260905062532 | 72 | 276 | 1.0 | 2.0 | 0.00 | 0.06 | 0.06 | 99 | 1009.9 |
| 20260905062027 | 72 | 264 | 2.0 | 2.0 | 0.00 | 0.06 | 0.06 | 99 | 1010.2 |
| 20260905061522 | 72 | 253 | 2.0 | 2.0 | 0.00 | 0.06 | 0.06 | 99 | 1010.0 |
| 20260905061021 | 72 | 239 | 2.0 | 3.0 | 0.00 | 0.06 | 0.06 | 99 | 1010.2 |
| 20260905060517 | 72 | 255 | 2.0 | 2.0 | 0.00 | 0.06 | 0.06 | 99 | 1010.2 |
| 20260905060013 | 72 | 257 | 2.0 | 2.0 | 0.00 | 0.06 | 0.06 | 99 | 1010.3 |
| 20260905055511 | 72 | 265 | 2.0 | 3.0 | 0.00 | 0.06 | 0.06 | 99 | 1010.3 |
| 20260905055006 | 72 | 260 | 2.0 | 3.0 | 0.12 | 0.06 | 0.06 | 99 | 1010.4 |
| 20260905054502 | 73 | 246 | 2.0 | 3.0 | 0.33 | 0.06 | 0.06 | 99 | 1010.3 |
| 20260905053957 | 73 | 274 | 3.0 | 3.0 | 0.19 | 0.04 | 0.04 | 99 | 1010.2 |
| 20260905053451 | 74 | 279 | 2.0 | 2.0 | 0.02 | 0.01 | 0.01 | 99 | 1010.6 |
| 20260905052947 | 74 | 279 | 2.0 | 2.0 | 0.00 | 0.00 | 0.00 | 99 | 1010.6 |
| 20260905052447 | 74 | 279 | 2.0 | 2.0 | 0.00 | 0.00 | 0.00 | 99 | 1010.5 |
| 20260905051946 | 74 | 279 | 2.0 | 2.0 | 0.02 | 0.00 | 0.00 | 99 | 1010.6 |
| 20260905051441 | 74 | 279 | 2.0 | 2.0 | 0.02 | 0.00 | 0.00 | 99 | 1010.5 |
| 20260905050939 | 74 | 279 | 2.0 | 2.0 | 0.00 | 0.00 | 0.00 | 99 | 1010.7 |
| 20260905050429 | 74 | 264 | 2.0 | 2.0 | 0.00 | 0.00 | 0.00 | 98 | 1010.4 |
| 20260905045925 | 74 | 247 | 2.0 | 3.0 | 0.00 | 0.00 | 0.00 | 98 | 1010.4 |
| 20260905045420 | 74 | 302 | 3.0 | 5.0 | 0.00 | 0.00 | 0.00 | 99 | 1010.4 |
| 20260905044915 | 74 | 257 | 2.0 | 3.0 | 0.00 | 0.00 | 0.00 | 99 | 1010.7 |
| 20260905044410 | 74 | 257 | 2.0 | 3.0 | 0.00 | 0.00 | 0.00 | 99 | 1010.6 |
| 20260905043909 | 74 | 246 | 3.0 | 3.0 | 0.00 | 0.00 | 0.00 | 99 | 1010.6 |
| 20260905043404 | 74 | 248 | 2.0 | 3.0 | 0.00 | 0.00 | 0.00 | 99 | 1010.2 |
| 20260905042903 | 74 | 246 | 3.0 | 3.0 | 0.00 | 0.00 | 0.00 | 99 | 1010.4 |
| 20260905042358 | 74 | 250 | 2.0 | 2.0 | 0.00 | 0.00 | 0.00 | 99 | 1010.3 |
| 20260905041853 | 74 | 250 | 2.0 | 3.0 | 0.00 | 0.00 | 0.00 | 99 | 1010.5 |
| 20260905041349 | 74 | 264 | 2.0 | 2.0 | 0.00 | 0.00 | 0.00 | 99 | 1010.3 |
| 20260905040843 | 74 | 264 | 2.0 | 2.0 | 0.00 | 0.00 | 0.00 | 99 | 1010.4 |
| 20260905040342 | 74 | 264 | 2.0 | 2.0 | 0.00 | 0.00 | 0.00 | 99 | 1010.4 |
| 20260905035836 | 74 | 264 | 2.0 | 2.0 | 0.00 | 0.00 | 0.00 | 99 | 1010.2 |
| 20260905035332 | 74 | 258 | 2.0 | 2.0 | 0.00 | 0.00 | 0.00 | 99 | 1010.5 |
| 20260905034828 | 74 | 258 | 2.0 | 2.0 | 0.00 | 0.00 | 0.00 | 99 | 1010.4 |
| 20260905034324 | 74 | 236 | 3.0 | 3.0 | 0.00 | 0.00 | 0.00 | 99 | 1010.6 |
| 20260905033822 | 74 | 236 | 3.0 | 3.0 | 0.00 | 0.00 | 0.00 | 99 | 1010.5 |
| 20260905033318 | 74 | 299 | 2.0 | 2.0 | 0.00 | 0.00 | 0.00 | 99 | 1010.6 |
| 20260905032817 | 74 | 299 | 2.0 | 2.0 | 0.00 | 0.00 | 0.00 | 99 | 1010.6 |
| 20260905032313 | 74 | 299 | 2.0 | 2.0 | 0.00 | 0.00 | 0.00 | 99 | 1010.5 |
| 20260905031808 | 74 | 299 | 2.0 | 2.0 | 0.00 | 0.00 | 0.00 | 99 | 1010.6 |
| 20260905031304 | 74 | 282 | 2.0 | 2.0 | 0.00 | 0.00 | 0.00 | 99 | 1010.5 |
| 20260905030759 | 74 | 245 | 2.0 | 2.0 | 0.00 | 0.00 | 0.00 | 99 | 1010.5 |
| 20260905030254 | 74 | 245 | 2.0 | 2.0 | 0.00 | 0.00 | 0.00 | 99 | 1010.6 |
| 20260905025748 | 74 | 245 | 2.0 | 2.0 | 0.00 | 0.00 | 0.00 | 99 | 1010.7 |
| 20260905025244 | 74 | 245 | 2.0 | 2.0 | 0.00 | 0.00 | 0.00 | 99 | 1010.6 |
| 20260905024739 | 74 | 245 | 2.0 | 2.0 | 0.00 | 0.00 | 0.00 | 99 | 1010.6 |
| 20260905024235 | 74 | 251 | 2.0 | 2.0 | 0.00 | 0.00 | 0.00 | 99 | 1010.6 |
| 20260905023735 | 74 | 270 | 1.0 | 2.0 | 0.00 | 0.00 | 0.00 | 98 | 1010.3 |
| 20260905023230 | 74 | 270 | 1.0 | 2.0 | 0.00 | 0.00 | 0.00 | 98 | 1010.3 |
| 20260905022729 | 74 | 259 | 2.0 | 2.0 | 0.00 | 0.00 | 0.00 | 98 | 1010.2 |
| 20260905022225 | 74 | 259 | 2.0 | 2.0 | 0.00 | 0.00 | 0.00 | 98 | 1010.3 |
| 20260905021719 | 74 | 259 | 2.0 | 2.0 | 0.00 | 0.00 | 0.00 | 98 | 1010.4 |
| 20260905021214 | 74 | 254 | 2.0 | 2.0 | 0.00 | 0.00 | 0.00 | 98 | 1010.4 |
| 20260905020709 | 74 | 233 | 2.0 | 3.0 | 0.00 | 0.00 | 0.00 | 98 | 1010.3 |
| 20260905020204 | 74 | 243 | 2.0 | 2.0 | 0.00 | 0.00 | 0.00 | 98 | 1010.3 |
| 20260905015702 | 74 | 241 | 2.0 | 2.0 | 0.00 | 0.00 | 0.00 | 98 | 1010.5 |
| 20260905015157 | 74 | 241 | 2.0 | 2.0 | 0.00 | 0.00 | 0.00 | 98 | 1010.4 |
| 20260905014655 | 74 | 248 | 2.0 | 2.0 | 0.00 | 0.00 | 0.00 | 98 | 1010.4 |
| 20260905014151 | 74 | 239 | 2.0 | 3.0 | 0.00 | 0.00 | 0.00 | 98 | 1010.7 |
| 20260905013648 | 74 | 270 | 2.0 | 2.0 | 0.00 | 0.00 | 0.00 | 98 | 1010.5 |
| 20260905013143 | 74 | 264 | 2.0 | 2.0 | 0.00 | 0.00 | 0.00 | 98 | 1010.4 |
| 20260905012638 | 74 | 276 | 1.0 | 2.0 | 0.00 | 0.00 | 0.00 | 98 | 1010.5 |
| 20260905012134 | 74 | 264 | 2.0 | 2.0 | 0.00 | 0.00 | 0.00 | 97 | 1010.5 |
| 20260905011630 | 74 | 233 | 2.0 | 2.0 | 0.00 | 0.00 | 0.00 | 97 | 1010.3 |
| 20260905011126 | 74 | 233 | 2.0 | 2.0 | 0.00 | 0.00 | 0.00 | 97 | 1010.6 |
| 20260905010620 | 74 | 241 | 2.0 | 2.0 | 0.00 | 0.00 | 0.00 | 97 | 1010.6 |
| 20260905010117 | 74 | 241 | 2.0 | 2.0 | 0.00 | 0.00 | 0.00 | 97 | 1010.6 |
| 20260905005612 | 74 | 241 | 2.0 | 2.0 | 0.00 | 0.00 | 0.00 | 97 | 1010.5 |
| 20260905005107 | 75 | 239 | 2.0 | 2.0 | 0.00 | 0.00 | 0.00 | 96 | 1010.4 |
| 20260905004601 | 75 | 239 | 2.0 | 2.0 | 0.00 | 0.00 | 0.00 | 96 | 1010.5 |
| 20260905004057 | 75 | 239 | 2.0 | 2.0 | 0.00 | 0.00 | 0.00 | 96 | 1010.3 |
| 20260905003553 | 75 | 245 | 2.0 | 2.0 | 0.00 | 0.00 | 0.00 | 96 | 1010.4 |
| 20260905003048 | 75 | 250 | 2.0 | 2.0 | 0.00 | 0.00 | 0.00 | 95 | 1010.4 |
| 20260905002543 | 75 | 251 | 2.0 | 2.0 | 0.00 | 0.00 | 0.00 | 95 | 1010.1 |
| 20260905002038 | 75 | 243 | 2.0 | 2.0 | 0.00 | 0.00 | 0.00 | 95 | 1010.1 |
| 20260905001533 | 75 | 250 | 2.0 | 2.0 | 0.00 | 0.00 | 0.00 | 95 | 1009.8 |
| 20260905001026 | 75 | 251 | 1.0 | 2.0 | 0.00 | 0.00 | 0.00 | 94 | 1009.7 |
| 20260905000522 | 76 | 232 | 2.0 | 2.0 | 0.00 | 0.00 | 0.00 | 94 | 1009.7 |
| 20260905000019 | 76 | 265 | 2.0 | 2.0 | 0.00 | 0.00 | 0.00 | 93 | 1009.7 |
| 20260904235513 | 77 | 251 | 2.0 | 2.0 | 0.00 | 0.00 | 0.00 | 93 | 1009.8 |
| 20260904235013 | 77 | 251 | 2.0 | 2.0 | 0.00 | 0.00 | 0.00 | 93 | 1009.8 |
| 20260904234513 | 77 | 251 | 2.0 | 2.0 | 0.00 | 0.00 | 0.00 | 93 | 1009.9 |
| 20260904234009 | 77 | 247 | 2.0 | 2.0 | 0.00 | 0.00 | 0.00 | 93 | 1010.0 |
| 20260904233504 | 77 | 254 | 2.0 | 2.0 | 0.00 | 0.00 | 0.00 | 92 | 1009.9 |
| 20260904233000 | 77 | 253 | 2.0 | 2.0 | 0.00 | 0.00 | 0.00 | 91 | 1010.0 |
| 20260904232456 | 77 | 248 | 2.0 | 2.0 | 0.00 | 0.00 | 0.00 | 91 | 1009.8 |
| 20260904231953 | 78 | 251 | 1.0 | 2.0 | 0.00 | 0.00 | 0.00 | 91 | 1010.0 |
| 20260904231448 | 78 | 265 | 2.0 | 2.0 | 0.00 | 0.00 | 0.00 | 91 | 1010.1 |
| 20260904230943 | 78 | 260 | 2.0 | 2.0 | 0.00 | 0.00 | 0.00 | 91 | 1010.1 |
| 20260904230442 | 79 | 264 | 2.0 | 2.0 | 0.00 | 0.00 | 0.00 | 91 | 1009.9 |
| 20260904225937 | 79 | 261 | 2.0 | 2.0 | 0.00 | 0.00 | 0.00 | 91 | 1010.0 |
| 20260904225435 | 79 | 261 | 2.0 | 2.0 | 0.00 | 0.00 | 0.00 | 91 | 1010.0 |
| 20260904224935 | 79 | 252 | 2.0 | 3.0 | 0.00 | 0.00 | 0.00 | 90 | 1010.2 |
| 20260904224431 | 79 | 252 | 2.0 | 3.0 | 0.00 | 0.00 | 0.00 | 90 | 1010.0 |
| 20260904223930 | 79 | 257 | 2.0 | 3.0 | 0.00 | 0.00 | 0.00 | 89 | 1010.0 |
| 20260904223429 | 80 | 243 | 2.0 | 3.0 | 0.00 | 0.00 | 0.00 | 89 | 1010.3 |
| 20260904222925 | 80 | 255 | 3.0 | 3.0 | 0.00 | 0.00 | 0.00 | 89 | 1010.0 |
| 20260904222420 | 80 | 254 | 2.0 | 3.0 | 0.00 | 0.00 | 0.00 | 86 | 1010.2 |
| 20260904221915 | 81 | 264 | 2.0 | 2.0 | 0.00 | 0.00 | 0.00 | 86 | 1010.3 |
| 20260904221409 | 81 | 261 | 2.0 | 3.0 | 0.00 | 0.00 | 0.00 | 86 | 1010.0 |
| 20260904220905 | 81 | 257 | 2.0 | 3.0 | 0.00 | 0.00 | 0.00 | 86 | 1010.0 |
| 20260904220403 | 81 | 270 | 2.0 | 3.0 | 0.00 | 0.00 | 0.00 | 86 | 1010.0 |
| 20260904215900 | 81 | 252 | 2.0 | 3.0 | 0.00 | 0.00 | 0.00 | 85 | 1010.2 |
| 20260904215354 | 82 | 259 | 3.0 | 3.0 | 0.00 | 0.00 | 0.00 | 84 | 1010.2 |
| 20260904214850 | 82 | 259 | 3.0 | 3.0 | 0.00 | 0.00 | 0.00 | 85 | 1010.4 |